Wind_Speed
25 24 26 24 23 21 22 26 31 35 35 34 36 39 39 38 39 38 38 40 41 35 34 32 30 31 31 30 31 33 33 31 30 30 31 31 29 26 26 27 28 29 29
33 30 25 23 23 24 24 30 36 35 36 37 40 41 44 44 45 45 42 41 43 44 38 34 33 33 33 34 32 33 34 35 35 33 34 34 34 31 29 28 28 29 31
26 28 16 20 23 31 27 33 37 38 39 42 45 46 45 45 43 45 46 41 39 41 45 41 38 36 38 38 37 36 37 36 37 38 37 37 37 37 33 32 30 30 31
21 18 21 24 26 31 35 37 39 44 43 43 46 48 48 45 42 42 38 30 38 41 43 47 48 42 42 43 42 42 42 42 41 41 41 41 40 40 39 35 35 32 31
14 17 22 25 28 32 37 40 41 41 45 47 47 46 44 42 40 38 39 31 39 44 45 40 48 42 48 46 47 45 48 48 47 47 45 45 44 44 43 40 37 37 34
16 21 27 28 31 35 39 42 44 44 46 46 48 49 45 39 39 38 37 26 33 39 48 51 53 53 53 54 49 47 50 46 50 52 49 49 48 47 48 46 43 39 38
21 24 29 33 37 38 42 44 46 46 45 44 46 48 49 44 34 24 28 26 33 35 38 49 55 62 59 58 55 55 46 47 49 47 49 50 50 50 49 49 47 45 41
28 32 34 35 38 40 42 44 45 45 44 44 43 47 49 46 40 25 31 36 38 41 36 41 54 58 60 57 51 49 48 49 46 45 46 49 50 51 51 52 51 47 44
33 37 38 39 40 41 43 43 44 44 42 44 42 44 45 41 46 43 42 40 35 37 39 43 51 51 54 52 49 51 54 51 48 49 50 48 48 49 49 50 53 51 48
38 38 39 40 40 41 41 41 40 44 43 44 45 42 42 41 39 43 33 31 28 33 34 38 32 40 42 40 41 42 45 50 49 45 48 50 50 49 50 50 50 53 51
42 40 40 41 42 40 40 41 42 40 43 44 44 42 42 39 36 31 32 28 26 26 26 25 26 34 31 34 37 37 37 40 43 41 44 45 48 50 48 52 51 51 53
38 39 39 39 38 40 39 40 41 41 40 37 37 40 27 24 24 25 27 28 27 26 25 26 27 28 30 33 38 42 47 43 39 38 40 42 41 42 44 44 46 51 53
38 39 38 37 37 37 39 38 38 38 31 32 37 37 22 22 25 24 24 26 28 26 28 26 27 31 33 37 40 43 44 45 41 39 40 40 41 42 43 45 46 49 54
38 39 39 39 38 38 38 39 36 24 31 28 34 24 23 22 20 23 25 25 32 31 30 32 32 32 34 35 38 43 44 42 40 38 39 39 40 41 43 44 44 50 54
37 39 39 40 41 39 40 25 21 29 30 35 27 21 22 22 24 24 25 24 30 36 37 34 37 33 35 37 37 41 39 35 36 32 33 34 35 39 39 39 40 42 46
39 40 39 39 40 40 22 24 31 27 28 22 27 23 22 26 28 31 27 28 30 35 43 36 37 35 39 40 36 37 37 35 32 31 32 30 31 35 35 34 35 40 41
40 40 40 40 38 34 33 30 27 25 25 21 29 23 26 29 30 33 30 30 32 33 39 44 40 42 45 41 39 37 36 33 31 29 30 29 31 32 32 30 32 37 42
41 41 42 44 41 36 31 24 21 19 18 26 26 26 32 32 36 33 30 30 33 34 36 45 45 45 40 39 36 33 30 29 28 23 23 21 33 30 30 29 28 32 37
41 43 45 42 36 34 28 22 24 22 22 25 28 33 34 39 40 37 39 37 37 40 43 46 44 39 37 34 31 29 28 28 25 19 22 26 27 30 29 31 28 28 32
42 43 44 41 37 29 24 21 19 22 25 27 32 34 40 39 38 38 36 36 39 41 42 39 36 36 32 30 25 25 26 21 17 17 22 21 24 26 25 26 27 25 27
43 43 40 36 31 29 27 22 23 25 26 29 32 35 36 38 37 34 34 34 37 38 35 33 33 32 31 26 27 21 23 20 15 19 21 24 13 14 25 22 25 27 26
42 39 34 29 26 23 25 26 25 24 26 29 32 33 34 35 34 35 35 34 33 32 30 30 30 30 28 25 22 18 22 22 18 15 21 11 19 19 20 12 17 24 25
39 36 30 27 21 26 23 26 25 25 27 29 31 30 29 30 32 31 33 33 31 28 29 30 30 29 29 26 23 21 22 21 21 18 18 11 18 9 12 16 24 23 20
36 33 31 29 24 28 24 25 25 26 28 29 29 27 28 28 31 29 30 30 27 25 27 27 29 30 26 24 24 24 26 26 24 25 21 23 16 21 20 20 28 23 25
33 31 28 27 24 28 24 25 25 27 28 27 26 26 27 26 29 29 29 29 25 23 24 28 29 25 19 18 17 17 17 19 19 14 13 21 20 20 21 21 23 23 23
31 30 28 27 25 26 25 24 25 26 26 26 25 27 29 26 25 25 27 27 25 23 24 26 25 16 15 14 12 12 11 14 15 11 8 16 16 17 20 20 19 20 25
Wind_Direction
294 274 278 271 275 288 298 305 305 306 305 308 308 309 311 311 310 310 309 307 306 303 302 302 297 293 291 289 287 287 287 284 279 277 276 279 282 277 272 271 270 271 269
285 277 292 254 270 279 293 298 302 304 305 305 305 305 306 309 309 307 307 305 303 303 300 299 295 291 290 288 285 280 279 281 281 277 274 272 274 275 274 269 266 265 265
288 293 288 280 280 308 305 304 304 303 303 303 303 302 304 303 303 302 304 304 297 295 299 296 289 288 287 284 281 278 276 274 273 274 273 270 270 271 269 269 266 261 261
286 298 302 303 310 307 304 302 300 300 299 296 297 299 299 300 299 298 302 301 290 291 290 289 292 289 285 280 278 277 274 272 268 267 267 268 266 265 267 263 264 264 259
299 304 308 308 305 301 300 299 296 295 295 298 297 296 299 302 300 300 298 294 288 293 293 288 286 285 285 283 280 275 271 269 270 266 261 262 262 261 260 261 258 260 259
310 312 308 304 300 296 295 296 298 299 300 302 303 299 303 300 302 305 301 287 286 285 292 294 292 293 289 289 287 281 273 273 266 264 263 257 257 258 258 256 257 254 258
308 305 302 301 300 300 298 299 301 301 301 301 301 301 301 303 304 292 304 289 276 286 287 290 290 287 291 294 292 284 281 271 268 266 263 260 255 254 253 254 251 251 251
308 306 304 301 301 301 301 301 301 301 302 302 302 300 299 295 296 265 262 265 272 280 283 279 283 291 291 290 289 288 278 275 273 269 262 259 256 253 251 251 251 248 247
309 306 306 306 305 304 303 303 302 301 302 299 298 296 297 294 292 289 283 281 278 275 274 279 288 284 285 287 284 283 284 279 273 271 269 261 256 254 253 249 249 248 243
312 309 306 306 306 305 304 303 304 303 301 300 298 294 288 289 294 294 292 291 283 276 280 287 285 288 286 286 286 285 285 283 279 276 272 268 261 255 252 250 246 246 244
310 308 308 309 309 309 308 307 305 302 299 296 292 292 290 286 287 292 294 294 288 289 286 286 284 291 301 298 295 290 286 284 281 279 276 273 269 264 256 252 249 243 244
307 309 310 311 312 311 310 307 305 303 299 294 281 290 291 289 295 292 289 289 291 293 287 281 290 295 294 296 296 294 292 288 284 279 273 270 268 264 260 252 253 246 240
311 311 312 315 315 314 311 311 307 306 299 286 285 296 293 287 285 293 296 292 292 290 290 292 292 289 292 290 292 290 291 291 287 279 274 271 269 265 261 257 251 251 243
312 316 319 320 319 319 318 314 312 299 292 289 299 295 296 296 293 294 294 294 290 290 289 295 296 297 296 296 291 293 291 288 285 280 274 268 264 263 260 254 254 245 245
318 321 323 323 321 321 322 318 304 289 287 291 290 298 290 292 297 293 292 290 289 295 296 300 300 301 297 293 296 292 293 289 284 281 275 270 263 260 258 255 249 246 237
321 323 323 323 322 325 314 301 293 294 280 271 285 286 295 294 297 298 299 290 290 290 294 299 298 297 293 296 295 294 293 289 285 280 273 271 262 256 256 251 243 237 224
322 323 323 324 325 321 318 308 294 293 289 268 292 294 291 294 295 298 298 292 292 291 289 295 300 299 300 300 299 297 293 290 285 278 275 267 265 257 253 247 242 236 230
324 324 326 326 326 324 323 314 304 296 278 273 282 277 292 295 300 303 297 293 291 293 293 296 305 302 301 302 302 299 298 293 286 274 256 267 273 264 246 245 246 236 234
324 327 326 326 323 318 319 309 300 293 282 274 275 289 299 303 304 306 306 305 302 300 299 302 303 302 303 304 303 302 299 290 290 279 258 265 263 263 250 242 247 240 235
326 325 322 323 322 321 316 302 292 288 291 287 285 289 297 301 304 305 305 305 303 301 301 302 302 303 304 306 303 306 303 292 275 252 236 255 261 268 245 244 246 245 237
323 322 322 322 322 313 317 308 303 298 295 292 292 296 302 303 304 306 304 306 304 304 304 303 304 304 303 301 293 288 288 291 276 252 241 248 256 291 243 245 240 241 244
321 321 319 314 318 303 307 305 307 302 299 300 302 303 304 306 311 313 311 310 310 308 306 306 309 310 309 306 309 292 281 277 265 256 258 240 240 246 245 219 236 228 231
319 320 316 314 315 290 303 301 304 305 306 305 304 306 308 309 311 314 312 315 314 311 312 316 317 314 307 298 283 272 277 281 263 250 262 248 240 219 220 240 236 224 217
317 316 313 315 309 303 309 304 306 308 309 309 308 309 311 312 310 314 316 317 315 313 314 316 311 308 302 300 292 271 260 264 269 253 247 254 223 231 234 237 244 229 220
313 313 309 312 302 305 309 305 308 310 312 311 310 311 313 314 314 317 320 323 319 318 318 319 317 311 308 307 304 289 283 278 278 272 249 252 253 256 250 245 246 234 223
312 310 313 309 300 302 309 306 307 310 311 312 312 313 314 315 315 319 324 326 324 321 323 325 322 314 317 320 316 311 312 304 287 247 225 238 246 251 262 265 252 232 226
Height
3169 3169 3168 3165 3164 3163 3161 3159 3157 3154 3151 3147 3144 3140 3138 3137 3134 3132 3129 3125 3122 3123 3122 3120 3118 3115 3115 3115 3113 3111 3110 3111 3112 3112 3112 3111 3110 3112 3114 3114 3116 3116 3118
3163 3163 3162 3160 3161 3158 3156 3155 3150 3148 3145 3142 3138 3135 3131 3128 3125 3122 3121 3117 3113 3110 3112 3112 3110 3108 3106 3105 3105 3105 3104 3103 3103 3104 3105 3105 3104 3105 3107 3107 3109 3111 3112
3158 3158 3157 3157 3155 3153 3150 3148 3145 3142 3139 3134 3131 3128 3125 3122 3118 3114 3110 3109 3104 3100 3097 3098 3100 3100 3098 3096 3096 3095 3094 3095 3096 3096 3096 3097 3098 3096 3099 3100 3102 3104 3106
3157 3156 3155 3153 3151 3148 3145 3143 3139 3133 3131 3129 3123 3120 3116 3113 3110 3106 3103 3100 3095 3095 3088 3084 3084 3088 3087 3086 3086 3086 3085 3083 3085 3086 3087 3088 3089 3090 3089 3093 3095 3097 3098
3154 3152 3150 3148 3147 3143 3138 3134 3131 3128 3122 3118 3115 3111 3108 3104 3100 3097 3094 3093 3086 3079 3077 3079 3070 3076 3070 3073 3073 3075 3073 3073 3073 3072 3075 3077 3079 3081 3082 3083 3087 3089 3091
3150 3148 3144 3144 3141 3136 3132 3127 3123 3119 3115 3109 3104 3100 3098 3095 3092 3089 3084 3084 3080 3073 3067 3063 3061 3057 3056 3057 3059 3059 3055 3061 3058 3058 3062 3065 3067 3070 3071 3073 3075 3080 3082
3145 3144 3140 3136 3132 3130 3124 3119 3114 3110 3106 3102 3096 3091 3087 3086 3084 3084 3079 3075 3070 3067 3062 3055 3050 3046 3045 3043 3041 3041 3046 3042 3042 3047 3048 3049 3053 3056 3060 3063 3066 3068 3071
3139 3136 3133 3130 3124 3120 3116 3111 3105 3100 3097 3092 3088 3081 3077 3078 3077 3073 3069 3065 3062 3058 3054 3047 3040 3036 3032 3032 3032 3030 3027 3029 3031 3031 3033 3035 3037 3041 3046 3049 3052 3056 3060
3133 3128 3124 3120 3116 3111 3106 3101 3096 3091 3088 3083 3081 3076 3068 3064 3059 3060 3058 3055 3052 3048 3041 3036 3032 3028 3024 3022 3021 3017 3012 3014 3018 3018 3017 3021 3024 3026 3030 3036 3039 3044 3049
3125 3121 3116 3111 3107 3103 3097 3093 3089 3081 3078 3074 3069 3066 3061 3056 3050 3044 3044 3042 3039 3037 3033 3029 3024 3019 3017 3014 3011 3007 3002 3001 3002 3004 3004 3005 3009 3013 3016 3019 3026 3030 3036
3117 3112 3108 3103 3097 3093 3088 3083 3078 3075 3068 3063 3059 3054 3050 3047 3043 3039 3032 3032 3030 3028 3025 3021 3016 3012 3008 3004 3001 2998 2995 2992 2991 2992 2991 2992 2994 2998 3002 3005 3009 3016 3019
3109 3104 3100 3094 3089 3083 3079 3073 3067 3062 3057 3052 3048 3045 3040 3038 3034 3031 3027 3022 3020 3019 3016 3012 3009 3006 3001 2997 2992 2987 2983 2981 2982 2980 2980 2981 2982 2985 2987 2992 2995 3001 3007
3101 3096 3091 3086 3080 3075 3069 3063 3058 3051 3045 3042 3039 3035 3032 3030 3026 3024 3020 3017 3013 3010 3007 3004 3001 2997 2992 2986 2981 2976 2973 2969 2968 2968 2968 2969 2971 2972 2974 2978 2983 2986 2992
3093 3087 3081 3075 3070 3065 3058 3052 3047 3043 3039 3034 3029 3026 3025 3023 3021 3018 3015 3011 3004 3001 2999 2995 2992 2987 2982 2976 2970 2965 2961 2959 2957 2957 2957 2958 2959 2960 2961 2965 2968 2974 2978
3084 3077 3071 3065 3060 3056 3048 3042 3038 3036 3032 3028 3024 3022 3020 3017 3015 3012 3009 3005 2999 2991 2986 2985 2981 2979 2973 2967 2962 2955 2951 2949 2947 2947 2946 2947 2949 2950 2951 2954 2957 2961 2966
3075 3069 3064 3059 3052 3045 3041 3036 3033 3029 3025 3023 3019 3017 3014 3011 3008 3004 3000 2997 2993 2986 2976 2977 2973 2968 2961 2955 2951 2946 2942 2939 2938 2938 2936 2938 2938 2940 2941 2944 2947 2951 2956
3067 3062 3056 3050 3043 3038 3033 3028 3024 3020 3018 3016 3013 3010 3008 3005 3000 2996 2992 2989 2984 2979 2971 2964 2962 2956 2949 2943 2939 2936 2932 2930 2929 2928 2927 2928 2929 2931 2932 2935 2938 2942 2947
3058 3052 3046 3039 3033 3027 3024 3018 3015 3013 3013 3011 3008 3004 3000 2997 2992 2988 2983 2979 2973 2968 2962 2953 2951 2944 2939 2934 2930 2926 2923 2922 2920 2921 2921 2921 2921 2923 2925 2927 2930 2933 2937
3049 3042 3036 3031 3026 3021 3017 3013 3010 3009 3006 3003 3001 2996 2992 2987 2982 2978 2973 2968 2963 2958 2952 2944 2939 2935 2930 2926 2922 2919 2917 2914 2913 2913 2914 2914 2913 2915 2917 2920 2923 2926 2929
3040 3034 3028 3023 3018 3013 3011 3007 3005 3002 2999 2996 2993 2989 2984 2979 2974 2969 2965 2959 2954 2947 2942 2936 2931 2926 2922 2919 2916 2913 2910 2908 2907 2907 2907 2908 2907 2909 2911 2913 2916 2919 2922
3032 3026 3020 3014 3010 3006 3004 3001 2998 2995 2992 2989 2985 2980 2976 2970 2966 2962 2957 2952 2945 2938 2933 2928 2923 2919 2915 2912 2909 2907 2905 2903 2902 2901 2901 2902 2904 2904 2906 2908 2910 2913 2916
3025 3020 3014 3008 3004 3001 2998 2995 2992 2989 2986 2981 2977 2973 2968 2962 2957 2952 2947 2943 2938 2931 2926 2921 2916 2911 2908 2904 2902 2901 2899 2898 2896 2896 2895 2897 2898 2900 2902 2903 2904 2907 2910
3018 3013 3009 3005 3000 2995 2993 2989 2986 2983 2979 2975 2970 2966 2961 2957 2951 2947 2941 2936 2930 2924 2919 2914 2909 2905 2901 2898 2895 2893 2893 2891 2890 2891 2890 2891 2894 2895 2897 2898 2898 2902 2906
3011 3006 3001 2998 2995 2989 2987 2983 2980 2977 2973 2968 2964 2960 2955 2951 2945 2941 2935 2930 2924 2919 2914 2910 2905 2900 2895 2891 2887 2885 2884 2884 2883 2884 2886 2886 2890 2891 2892 2893 2893 2898 2902
3005 3001 2996 2991 2989 2983 2982 2978 2974 2970 2966 2962 2958 2954 2950 2945 2939 2935 2930 2924 2919 2914 2910 2904 2899 2893 2889 2886 2882 2880 2880 2878 2877 2879 2882 2882 2885 2886 2887 2888 2889 2895 2897
2998 2993 2989 2986 2983 2979 2976 2972 2969 2964 2961 2957 2953 2948 2943 2941 2935 2930 2925 2919 2914 2909 2904 2899 2893 2889 2885 2882 2880 2878 2876 2875 2874 2875 2878 2880 2881 2883 2883 2885 2886 2889 2893